Mandan, ND

1:37 PM CST on November 18, 2017 (GMT -0600)
Mandan

Weather History for KY19 - March, 2012

Change the Weather History Date:

Saturday, March 31, 2012

  Actual Average (KBIS) Record (KBIS)
Temperature  
Mean Temperature 61 °F -  
Max Temperature 71 °F 45 °F 76 °F (2015)
Min Temperature 51 °F 23 °F -8 °F (1975)
Degree Days  
Heating Degree Days 4    
Growing Degree Days 11 (Base 50)    
Moisture  
Dew Point 35 °F    
Average Humidity 39    
Maximum Humidity 58    
Minimum Humidity 25    
Precipitation  
Precipitation 0.00 in - - ()
Sea Level Pressure  
Sea Level Pressure 29.65 in    
Wind  
Wind Speed 9 mph (West)    
Max Wind Speed 18 mph    
Max Gust Speed 23 mph    
Visibility 10 miles    
Events      
Averages and records for this station are not official NWS values.
T = Trace of Precipitation, MM = Missing Value Source: NWS Daily Summary

Daily Weather History Graph

Daily Weather History Graph

Search for Another Location

Airport or City:

Trip Planner

Search our weather history database for the weather conditions in past years. The results will help you decide how hot, cold, wet, or windy it might be!

Date:

Astronomy

Mar. 31, 2012 Rise Set
Actual Time 7:23 AM CDT 8:12 PM CDT
Civil Twilight 6:53 AM CDT 8:42 PM CDT
Nautical Twilight 6:16 AM CDT 9:19 PM CDT
Astronomical Twilight 5:38 AM CDT 9:57 PM CDT
Moon 1:19 PM CDT (3/31) 3:45 AM CDT (3/31)
Length of Visible Light 13h 49m
Length of Day
12h 48m
First Quarter, 59% of the Moon is Illuminated
Mar 31
First Quarter
Apr 6
Full
Apr 13
Last Quarter
Apr 21
New
Apr 29
First Quarter

Hourly Weather History & Observations

Time (CDT) Temp. Dew Point Humidity Pressure Visibility Wind Dir Wind Speed Gust Speed Precip Events Conditions
12:15 AM 55.4 °F 37.4 °F 51% 29.58 in 10.0 mi SSW 9.2 mph - N/A   Scattered Clouds
12:35 AM 55.4 °F 37.4 °F 51% 29.58 in 10.0 mi SSW 9.2 mph - N/A   Scattered Clouds
12:55 AM 53.6 °F 37.4 °F 54% 29.58 in 10.0 mi SSW 8.1 mph - N/A   Partly Cloudy
1:35 AM 55.4 °F 37.4 °F 51% 29.59 in 10.0 mi SSW 11.5 mph - N/A   Scattered Clouds
1:55 AM 55.4 °F 35.6 °F 47% 29.59 in 10.0 mi SSW 11.5 mph - N/A   Partly Cloudy
2:15 AM 55.4 °F 35.6 °F 47% 29.59 in 10.0 mi SW 12.7 mph - N/A   Clear
2:55 AM 53.6 °F 37.4 °F 54% 29.59 in 10.0 mi SSW 9.2 mph - N/A   Clear
3:15 AM 53.6 °F 35.6 °F 51% 29.59 in 10.0 mi SW 11.5 mph - N/A   Clear
3:35 AM 53.6 °F 37.4 °F 54% 29.59 in 10.0 mi SW 10.4 mph - N/A   Clear
3:55 AM 51.8 °F 37.4 °F 58% 29.59 in 10.0 mi SW 10.4 mph - N/A   Clear
4:15 AM 53.6 °F 37.4 °F 54% 29.60 in 10.0 mi WSW 8.1 mph - N/A   Clear
4:35 AM 51.8 °F 35.6 °F 54% 29.59 in 10.0 mi SW 10.4 mph - N/A   Clear
4:55 AM 53.6 °F 35.6 °F 51% 29.60 in 10.0 mi WSW 11.5 mph - N/A   Clear
5:15 AM 53.6 °F 35.6 °F 51% 29.61 in 10.0 mi WSW 13.8 mph - N/A   Clear
5:35 AM 53.6 °F 35.6 °F 51% 29.61 in 10.0 mi West 12.7 mph - N/A   Clear
5:55 AM 55.4 °F 33.8 °F 44% 29.63 in 10.0 mi WNW 15.0 mph - N/A   Clear
6:15 AM 53.6 °F 32.0 °F 44% 29.64 in 10.0 mi WNW 18.4 mph - N/A   Clear
6:35 AM 55.4 °F 32.0 °F 41% 29.66 in 10.0 mi NW 16.1 mph 23.0 mph N/A   Clear
6:55 AM 53.6 °F 32.0 °F 44% 29.66 in 10.0 mi NW 15.0 mph - N/A   Clear
7:15 AM 53.6 °F 32.0 °F 44% 29.67 in 10.0 mi NW 11.5 mph - N/A   Clear
7:35 AM 51.8 °F 33.8 °F 50% 29.68 in 10.0 mi NNW 11.5 mph - N/A   Clear
7:55 AM 53.6 °F 33.8 °F 47% 29.69 in 10.0 mi NW 10.4 mph - N/A   Clear
8:15 AM 53.6 °F 33.8 °F 47% 29.69 in 10.0 mi NW 10.4 mph - N/A   Clear
8:35 AM 55.4 °F 33.8 °F 44% 29.69 in 10.0 mi NW 6.9 mph - N/A   Clear
8:55 AM 55.4 °F 35.6 °F 47% 29.69 in 10.0 mi WNW 6.9 mph - N/A   Clear
9:15 AM 55.4 °F 35.6 °F 47% 29.70 in 10.0 mi WNW 8.1 mph - N/A   Clear
9:35 AM 57.2 °F 35.6 °F 44% 29.71 in 10.0 mi WNW 11.5 mph - N/A   Clear
9:55 AM 59.0 °F 35.6 °F 42% 29.72 in 10.0 mi WNW 13.8 mph - N/A   Clear
10:15 AM 60.8 °F 35.6 °F 39% 29.72 in 10.0 mi NW 15.0 mph - N/A   Clear
10:35 AM 62.6 °F 33.8 °F 34% 29.72 in 10.0 mi NW 13.8 mph 20.7 mph N/A   Clear
10:55 AM 62.6 °F 33.8 °F 34% 29.73 in 10.0 mi NNW 11.5 mph - N/A   Clear
11:15 AM 62.6 °F 33.8 °F 34% 29.72 in 10.0 mi North 6.9 mph - N/A   Clear
11:35 AM 62.6 °F 32.0 °F 32% 29.72 in 10.0 mi NNW 5.8 mph - N/A   Clear
11:55 AM 62.6 °F 33.8 °F 34% 29.72 in 10.0 mi North 5.8 mph - N/A   Clear
12:15 PM 64.4 °F 32.0 °F 30% 29.72 in 10.0 mi WNW 8.1 mph - N/A   Clear
12:35 PM 64.4 °F 33.8 °F 32% 29.71 in 10.0 mi West 5.8 mph - N/A   Clear
12:55 PM 66.2 °F 32.0 °F 28% 29.71 in 10.0 mi NW 6.9 mph - N/A   Clear
1:15 PM 66.2 °F 32.0 °F 28% 29.70 in 10.0 mi NW 8.1 mph - N/A   Clear
1:35 PM 68.0 °F 32.0 °F 26% 29.69 in 10.0 mi NNW 5.8 mph - N/A   Clear
1:55 PM 66.2 °F 32.0 °F 28% 29.68 in 10.0 mi NE 3.5 mph - N/A   Clear
2:15 PM 68.0 °F 32.0 °F 26% 29.68 in 10.0 mi Calm Calm - N/A   Clear
2:35 PM 68.0 °F 33.8 °F 28% 29.68 in 10.0 mi Calm Calm - N/A   Clear
2:55 PM 69.8 °F 33.8 °F 27% 29.67 in 10.0 mi Calm Calm - N/A   Clear
3:15 PM 71.6 °F 33.8 °F 25% 29.66 in 10.0 mi West 3.5 mph - N/A   Clear
3:35 PM 69.8 °F 32.0 °F 25% 29.66 in 10.0 mi Calm Calm - N/A   Clear
3:55 PM 71.6 °F 33.8 °F 25% 29.66 in 10.0 mi SE 3.5 mph - N/A   Clear
4:15 PM 71.6 °F 33.8 °F 25% 29.66 in 10.0 mi South 5.8 mph - N/A   Clear
4:35 PM 71.6 °F 33.8 °F 25% 29.65 in 10.0 mi Calm Calm - N/A   Clear
4:55 PM 71.6 °F 35.6 °F 27% 29.65 in 10.0 mi SSW 3.5 mph - N/A   Clear
5:15 PM 71.6 °F 35.6 °F 27% 29.64 in 10.0 mi ESE 6.9 mph - N/A   Clear
5:35 PM 71.6 °F 35.6 °F 27% 29.64 in 10.0 mi East 3.5 mph - N/A   Clear
5:55 PM 71.6 °F 35.6 °F 27% 29.63 in 10.0 mi SE 5.8 mph - N/A   Clear
6:15 PM 71.6 °F 37.4 °F 29% 29.63 in 10.0 mi ESE 8.1 mph - N/A   Clear
6:35 PM 71.6 °F 37.4 °F 29% 29.63 in 10.0 mi ESE 10.4 mph - N/A   Clear
7:15 PM 69.8 °F 37.4 °F 31% 29.63 in 10.0 mi ESE 6.9 mph - N/A   Clear
7:35 PM 66.2 °F 39.2 °F 37% 29.62 in 10.0 mi East 8.1 mph - N/A   Clear
7:55 PM 66.2 °F 37.4 °F 35% 29.61 in 10.0 mi East 9.2 mph - N/A   Clear
8:15 PM 64.4 °F 37.4 °F 37% 29.60 in 10.0 mi East 9.2 mph - N/A   Clear
8:35 PM 64.4 °F 37.4 °F 37% 29.60 in 10.0 mi East 9.2 mph - N/A   Clear
8:55 PM 62.6 °F 37.4 °F 39% 29.59 in 10.0 mi East 11.5 mph - N/A   Clear
9:15 PM 60.8 °F 37.4 °F 42% 29.59 in 10.0 mi East 11.5 mph - N/A   Clear
9:35 PM 60.8 °F 37.4 °F 42% 29.60 in 10.0 mi East 10.4 mph - N/A   Clear
10:15 PM 59.0 °F 37.4 °F 45% 29.60 in 10.0 mi East 13.8 mph - N/A   Clear
10:35 PM 59.0 °F 37.4 °F 45% 29.59 in 10.0 mi ESE 13.8 mph - N/A   Clear
10:55 PM 57.2 °F 37.4 °F 48% 29.58 in 10.0 mi ESE 12.7 mph - N/A   Clear
11:15 PM 57.2 °F 37.4 °F 48% 29.57 in 10.0 mi ESE 12.7 mph - N/A   Clear
11:35 PM 57.2 °F 39.2 °F 51% 29.56 in 10.0 mi East 12.7 mph - N/A   Clear